Find Starlink 30904

NORAD ID: 58364 Int'l Des: 2023-177 Owner: SPXS Country: US Constellation: starlink operational
LEOCIRCULAR

Current View

Loading 3D Globe...

About Starlink 30904

Starlink 30904 (NORAD 58364) is a starlink constellation satellite (v2 mini) launched Nov 18, 2023 by SPXS of US. It operates in LEO, CIRCULAR orbit with a mass of 730.00 kg.

About Starlink 30904

Description loading...

Upcoming Passes

Passes for default location (London). Set your location on the main map for personalized predictions.

Altitude History

Loading altitude history...

Two-Line Element Set

1 58364U 23177P 26171.31511133 .00016458 00000-0 10277-2 0 9994
2 58364 42.9992 147.9727 0006653 107.7645 252.3927 15.09227052143720
Epoch: Jun 20, 2026 • Age: 45 hours

Current Status

Altitude 537.4 km
Velocity 7.60 km/s
Sub-Earth Point 43.12°N, 106.36°W
Launch Date Nov 18, 2023
Age 2.5 years
Type internet

Technical Details

Classification Payload
Mass 730.00 kg
Dry Mass 700.00 kg
Total Mass 730.00 kg
Length 0.30 m
Diameter 4.10 m
Span 29.00 m
Shape Box + pan
Manufacturer SPXS
Bus Type Starlink V2M
Phase Status In Orbit
Owner/State SPXS/US

Most Searched